STARLINK-31278, 59163

Orbit data source: Space-Track

STARLINK-31278, 59163 is a payload satellite owned by SpaceX/Seattle (US) in LEO that was launched on Mon, 04 Mar 2024 UTC via an FALCON 9 launch vehicle from the Air Force Eastern Test Range (AFETR). Payload-class satellites include a variety of spacecraft equipped with specific instruments for various scientific and technological missions. These include communications satellites like Starlink; space stations such as the ISS; scientific satellites like the Hubble; Earth observation satellites from companies like Planet Labs, Umbra, and HawkEye 360; GPS; miniature CubeSats for education and research; and military/defense satellites.

Loading next visibility...
Identifier
59163, 2024-044M
Orbit
LEO
Country
Flag of USUS
Related business
Manufacturer
SpaceX/Seattle
Mission
Operational Commercial Communications
Bus & Motor
STARLINK V2M, Unknown motor
Mass
730 kg wet, ~700 kg dry
Launch date (UTC)
2024-03-04 (2 years ago)
Launch vehicle
FALCON 9
Launch site
Air Force Eastern Test Range (AFETR)
Object type
Payload
Rocket body
Debris
Shape & HBR
Box + 2 Pan, 17.7 m
Radar Cross Section
33.884 m², Large (>1 m²)

Expand to show TLE details & history
Last TLE update: 2 days ago

TLE from 2 days ago
0 STARLINK-31278
1 59163U 24044M   26171.25291374  .00000716  00000-0  35527-4 0  9998
2 59163  43.0009 247.6043 0000965 242.2793 117.7961 15.27571268129252
Epoch: 2026-06-20T06:04Z
TLE epoch observation values (Epoch: 2026-06-20T06:04:11.747Z)
Latitude
0.00001°
Longitude
-111.91483°
Altitude
483.16 km
Speed
7.625 km/s
True Right ascension
16h 30m 25s
True Declination
0° 00' 00"
Sunlit
Object was in full shadow at epoch
Visualization orbit readout
Latitude
Unknown
Longitude
Unknown
Altitude
Unknown
Speed
Unknown
Apparent Right ascension
Unknown
Apparent Declination
Unknown
Sunlit
N/A
Visualization observer readout
Local Sidereal Time
21:54:29
Azimuth
Unknown
Elevation
Unknown
Doppler factor
Unknown
Orbital elements
Apogee altitude
485.683 km
Perigee altitude
484.358 km
Semi-major axis
6,863.157 km
Eccentricity
0.0001
Inclination
43.0009°
RAAN
247.6043°
Arg. of periapsis
242.2793°
True anomaly
117.80588°
Mean anomaly
117.7961°
Eccentric anomaly
117.80099°
Mean motion
3.81731 °/min
Orbital period
94.31 mins
BSTAR
0.000035527
Loading maneuver chart data...
Computing Atmospheric mass density...
Loading historical data...
Loading historical data...
Loading historical data...
Loading historical data...
Loading historical data...
Loading historical data...
Loading historical data...

Documentation

Showing up to 5 results
|